Printer-friendly version

IAU Minor Planet Center

Minor Planet Center

MPEC 1999-V23: 1999 VO6

The following Minor Planet Electronic Circular may be linked-to from your own Web pages, but must not otherwise be redistributed electronically.


Read MPEC 1999-V22 Read MPEC 1999-V24


M.P.E.C. 1999-V23                                Issued 1999 Nov. 8, 22:35 UT

     The Minor Planet Electronic Circulars contain information on unusual
         minor planets and routine data on comets.  They are published
   on behalf of Commission 20 of the International Astronomical Union by the
          Minor Planet Center, Smithsonian Astrophysical Observatory,
                          Cambridge, MA 02138, U.S.A.

             BMARSDEN@CFA.HARVARD.EDU or GWILLIAMS@CFA.HARVARD.EDU
          URL http://cfa-www.harvard.edu/iau/mpc.html  ISSN 1523-6714

                                   1999 VO6

Observations:
     J99V06O* C1999 11 05.08193 20 45 12.93 +05 07 42.4          18.0        704
     J99V06O  C1999 11 05.09797 20 45 12.20 +05 06 43.6          18.5        704
     J99V06O  C1999 11 05.11403 20 45 11.48 +05 05 44.5          19.0        704
     J99V06O  C1999 11 05.13013 20 45 10.71 +05 04 45.1          19.2        704
     J99V06O  C1999 11 05.14612 20 45 10.06 +05 03 45.2          18.8        704
     J99V06O  C1999 11 06.04343 20 44 36.02 +04 08 54.9                      711
     J99V06O  C1999 11 06.04855 20 44 35.80 +04 08 35.8                      711
     J99V06O  C1999 11 06.05281 20 44 35.66 +04 08 20.3                      711
     J99V06O  C1999 11 06.06986 20 44 35.03 +04 07 17.0          18.0        704
     J99V06O  C1999 11 06.07012 20 44 34.98 +04 07 17.0          18.6        704
     J99V06O  C1999 11 06.07596 20 44 34.74 +04 06 55.4          18.2        704
     J99V06O  C1999 11 06.08624 20 44 34.36 +04 06 18.6          18.7        704
     J99V06O  C1999 11 06.08649 20 44 34.31 +04 06 18.2          18.7        704
     J99V06O  C1999 11 06.09231 20 44 34.02 +04 05 55.5          18.9        704
     J99V06O  C1999 11 06.09997 20 44 33.71 +04 05 27.3          18.3 R      853
     J99V06O  C1999 11 06.10098 20 44 33.68 +04 05 23.5          18.5 R      853
     J99V06O  C1999 11 06.10266 20 44 33.56 +04 05 17.7          19.1        704
     J99V06O  C1999 11 06.10281 20 44 33.61 +04 05 17.0          18.3 R      853
     J99V06O  C1999 11 06.10292 20 44 33.62 +04 05 16.6          19.1        704
     J99V06O  C1999 11 06.10877 20 44 33.35 +04 04 55.4          19.1        704
     J99V06O  C1999 11 06.12517 20 44 32.71 +04 03 55.4          18.8        704
     J99V06O  C1999 11 06.13551 20 44 32.28 +04 03 17.5          18.9        704
     J99V06O  C1999 11 06.13576 20 44 32.29 +04 03 16.9          18.5        704
     J99V06O  C1999 11 06.14157 20 44 31.98 +04 02 55.2          19.0        704
     J99V06O  C1999 11 07.04240 20 44 00.43 +03 08 17.7                      711
     J99V06O IC1999 11 07.04637 20 44 00.30 +03 08 03.1                      711
     J99V06O  C1999 11 07.05030 20 44 00.16 +03 07 48.9                      711
     J99V06O  C1999 11 07.42306 20 43 47.43 +02 45 20.3          18.2 V      402
     J99V06O  C1999 11 07.42432 20 43 47.36 +02 45 15.3                      402
     J99V06O  C1999 11 07.42558 20 43 47.34 +02 45 11.0                      402
     J99V06O  C1999 11 07.42684 20 43 47.26 +02 45 05.9                      402
     J99V06O  C1999 11 08.04356 20 43 27.60 +02 08 05.6                      711
     J99V06O  C1999 11 08.04755 20 43 27.45 +02 07 51.2                      711
     J99V06O  C1999 11 08.05137 20 43 27.30 +02 07 37.2                      711
     J99V06O  C1999 11 08.18559 20 43 22.67 +01 59 35.3          19.0 R      853
     J99V06O  C1999 11 08.18851 20 43 22.59 +01 59 24.7          18.7 R      853
     J99V06O  C1999 11 08.19184 20 43 22.46 +01 59 13.5          18.1 R      853
     J99V06O  C1999 11 08.73576 20 43 06.45 +01 26 45.1                      595
     J99V06O  C1999 11 08.73914 20 43 06.31 +01 26 31.9                      595
     J99V06O  C1999 11 08.74267 20 43 06.19 +01 26 19.6                      595
     J99V06O  C1999 11 08.74572 20 43 06.13 +01 26 08.4          18.3 V      595
     J99V06O  C1999 11 08.74799 20 43 06.03 +01 25 59.8                      595

Observer details:
402 Dynic Astronomical Observatory.  Observer A. Sugie.  0.60-m f/3.7 reflector
    + CCD.
595 Farra d'Isonzo.  Observers A. Toso, E. Pettarin.  0.40-m f/4.5 reflector
    + CCD
704 Lincoln Laboratory ETS, New Mexico.  Observers M. Blythe, F. Shelly,
    M. Bezpalko, M. Elowitz, R. Huber.  Measurers J. Stuart, H. Viggh,
    R. Sayer.  1.0-m f/2.15 reflector + CCD.
711 McDonald Observatory.  Observer P. J. Shelus.  0.76-m reflector + CCD.
853 Biosphere 2 Observatory.  Observer G. J. Garradd.  0.5-m f/8.1 reflector
    + CCD.

Orbital elements:
1999 VO6
Epoch 1999 Oct. 29.0 TT = JDT 2451480.5                 Williams
M 303.52759              (2000.0)            P               Q
n   0.80435972     Peri.  302.43622     -0.76664047     -0.57200074
a   1.1450800      Node   206.62510     +0.52351337     -0.81987107
e   0.7412499      Incl.   40.60598     -0.37174740     +0.02503164
P   1.23           H   17.3           G   0.15
From 42 observations 1999 Nov. 5-8.

Ephemeris:
1999 VO6                 a,e,i = 1.15, 0.74, 41                  q = 0.2963
Date    TT    R. A. (2000) Decl.     Delta      r     Elong.  Phase     V
1999 10 29    20 51.39   +12 33.9    0.606    1.270   102.4    49.8    18.6
1999 11 03    20 46.72   +07 16.8    0.611    1.216    95.7    54.3    18.6
1999 11 08    20 43.49   +02 10.9    0.619    1.158    88.9    58.8    18.7
1999 11 13    20 41.35   -02 42.0    0.629    1.098    82.1    63.3    18.7
1999 11 18    20 39.96   -07 22.1    0.640    1.034    75.5    67.7    18.8
1999 11 23    20 38.88   -11 52.0    0.650    0.967    68.9    72.3    18.8
1999 11 28    20 37.62   -16 14.8    0.659    0.896    62.3    77.1    18.8
1999 12 03    20 35.51   -20 34.5    0.666    0.821    55.7    82.3    18.9
1999 12 08    20 31.64   -24 54.3    0.671    0.743    48.9    88.2    18.9
1999 12 13    20 24.56   -29 15.8    0.675    0.660    41.9    95.1    18.9
1999 12 18    20 12.11   -33 33.4    0.680    0.573    34.6   103.2    19.0

Gareth V. Williams           (C) Copyright 1999 MPC           M.P.E.C. 1999-V23

Read MPEC 1999-V22 Read MPEC 1999-V24


Our Web policy. Index to the CBAT/MPC/ICQ pages.


Valid HTML 4.01!